Nashua, NH

11:10 AM EDT on August 23, 2019 (GMT -0400)
Boire

Weather History for KASH - May, 2019

Change the Weather History Date:

Friday, May 24, 2019

  Actual Average Record
Temperature  
Mean Temperature 62 °F -  
Max Temperature 69 °F 70 °F 91 °F (1964)
Min Temperature 53 °F 45 °F 30 °F (1963)
Degree Days  
Heating Degree Days 3    
Growing Degree Days 12 (Base 50)    
Moisture  
Dew Point 52 °F    
Average Humidity 72    
Maximum Humidity 100    
Minimum Humidity 49    
Precipitation  
Precipitation 0.01 in - - ()
Sea Level Pressure  
Sea Level Pressure 29.86 in    
Wind  
Wind Speed 8 mph ()    
Max Wind Speed 30 mph    
Max Gust Speed 37 mph    
Visibility 10.0 miles    
Events      
Averages and records for this station are not official NWS values.
T = Trace of Precipitation, MM = Missing Value Source: Averaged Metar Reports

Daily Weather History Graph

Daily Weather History Graph

Search for Another Location

Airport or City:

Astronomy

May. 24, 2019 Rise Set
Actual Time 5:15 AM EDT 8:10 PM EDT
Civil Twilight 4:42 AM EDT 8:44 PM EDT
Nautical Twilight 3:59 AM EDT 9:26 PM EDT
Astronomical Twilight 3:10 AM EDT 10:16 PM EDT
Moon 12:33 AM EDT (5/24) 10:13 AM EDT (5/24)
Length of Visible Light 16h 02m
Length of Day
14h 55m
Waning Gibbous, 69% of the Moon is Illuminated
May 24
Waning Gibbous
May 26
Last Quarter
Jun 3
New
Jun 10
First Quarter
Jun 17
Full

Hourly Weather History & Observations

Time (EDT) Temp. Dew Point Humidity Pressure Visibility Wind Dir Wind Speed Gust Speed Precip Events Conditions
12:56 AM 57.0 °F 57.0 °F 100% 29.72 in 10.0 mi Calm Calm - N/A   Clear
1:56 AM 59.0 °F 59.0 °F 100% 29.70 in 10.0 mi SSW 4.6 mph - 0.01 in   Clear
2:56 AM 59.0 °F 59.0 °F 100% 29.68 in 10.0 mi Calm Calm - N/A   Clear
3:56 AM 55.9 °F 55.9 °F 100% 29.66 in 9.0 mi Calm Calm - N/A   Clear
4:56 AM 59.0 °F 55.9 °F 90% 29.64 in 10.0 mi WSW 9.2 mph - N/A   Clear
5:56 AM 59.0 °F 55.9 °F 90% 29.67 in 10.0 mi Variable 4.6 mph - N/A   Clear
6:56 AM 60.1 °F 55.9 °F 86% 29.69 in 10.0 mi WSW 5.8 mph - N/A   Mostly Cloudy
7:56 AM 64.0 °F 54.0 °F 70% 29.69 in 10.0 mi WNW 20.7 mph 26.5 mph N/A   Scattered Clouds
8:56 AM 64.9 °F 54.0 °F 68% 29.73 in 10.0 mi WNW 17.3 mph 32.2 mph N/A   Mostly Cloudy
9:56 AM 66.0 °F 53.1 °F 63% 29.74 in 10.0 mi NW 19.6 mph 28.8 mph N/A   Overcast
10:56 AM 66.0 °F 50.0 °F 56% 29.76 in 10.0 mi NW 29.9 mph 36.8 mph N/A   Overcast
11:56 AM 66.9 °F 50.0 °F 54% 29.80 in 10.0 mi NNW 15.0 mph 29.9 mph N/A   Overcast
12:56 PM 69.1 °F 51.1 °F 53% 29.81 in 10.0 mi NNW 18.4 mph 31.1 mph N/A   Mostly Cloudy
1:56 PM 69.1 °F 48.9 °F 49% 29.86 in 10.0 mi NNW 18.4 mph 33.4 mph N/A   Mostly Cloudy
2:56 PM 68.0 °F 48.9 °F 50% 29.90 in 10.0 mi NNW 20.7 mph 28.8 mph N/A   Mostly Cloudy
3:56 PM 66.9 °F 48.9 °F 52% 29.94 in 10.0 mi NNW 16.1 mph 26.5 mph N/A   Mostly Cloudy
4:56 PM 66.0 °F 48.9 °F 54% 29.99 in 10.0 mi NNW 16.1 mph 26.5 mph N/A   Mostly Cloudy
5:56 PM 64.9 °F 48.9 °F 56% 30.03 in 10.0 mi North 12.7 mph 24.2 mph N/A   Mostly Cloudy
6:56 PM 63.0 °F 48.9 °F 60% 30.06 in 10.0 mi North 9.2 mph 16.1 mph N/A   Mostly Cloudy
7:56 PM 62.1 °F 48.9 °F 62% 30.09 in 10.0 mi NNW 5.8 mph - N/A   Mostly Cloudy
8:56 PM 61.0 °F 50.0 °F 67% 30.12 in 10.0 mi NNW 6.9 mph - N/A   Overcast
9:56 PM 60.1 °F 50.0 °F 69% 30.14 in 10.0 mi NNW 3.5 mph - N/A   Overcast
10:56 PM 57.0 °F 50.0 °F 77% 30.15 in 10.0 mi Calm Calm - N/A   Clear
11:56 PM 53.1 °F 51.1 °F 93% 30.17 in 10.0 mi Calm Calm - N/A   Clear